Regional Weather Roundup
Issued by NWS

Home | Current Version | Previous Version | Text Only | Print | Product List | Glossary Off
Versions: 1 2 3 4 5 6 7 8 9 10 11 12 13 14 15 16 17 18 19 20 21 22 23 24 25 26 27

000
ASUS45 KBOU 210507
RWRCO

WEATHER ROUNDUP FOR COLORADO
NATIONAL WEATHER SERVICE DENVER/BOULDER CO
1100 PM MDT SUN AUG 20 2017

NOTE: "FAIR" INDICATES FEW OR NO CLOUDS BELOW 12000 FEET WITH NO
SIGNIFICANT WEATHER AND/OR OBSTRUCTIONS TO VISIBILITY.

COZ001>005-013-030-031-210600-
...NORTHWEST COLORADO...

CITY           SKY/WX    TMP DP  RH WIND       PRES   REMARKS
CRAIG          FAIR      54  39  57 W3        30.19R
HAYDEN         FAIR      60  37  42 SE7       30.24R
MEEKER         FAIR      63  39  41 VRB3      30.21R
RABBIT EARS PA FAIR      54  34  47 E5        30.53R
STEAMBOAT SPGS FAIR      58  41  52 W3        30.24S
WALDEN         FAIR      52  36  54 CALM      30.36R
$$

COZ006>008-011-210600-
...WEST CENTRAL VALLEYS...

CITY           SKY/WX    TMP DP  RH WIND       PRES   REMARKS
GRAND JUNCTION FAIR      82  37  20 W5        30.05R
MONTROSE       FAIR      72  41  32 S9        30.17R
EAGLE          FAIR      71  37  28 E5        30.24R
RIFLE          FAIR      68  36  30 E7        30.12R
DELTA          FAIR      74  41  30 N6        30.10R
NUCLA          FAIR      70  37  30 E10       30.21S
$$

COZ017>023-064>068-210600-
...SOUTHWEST COLORADO...

CITY           SKY/WX    TMP DP  RH WIND       PRES   REMARKS
DURANGO        FAIR      62  45  53 E3        30.29R
CORTEZ         FAIR      68  49  50 S8        30.22R
PAGOSA SPRINGS CLOUDY    60  41  49 CALM      30.36S
TELLURIDE      FAIR      58  39  48 CALM      30.45R
WOLF CREEK PAS CLOUDY    46  32  57 S3        30.68R
$$

COZ009-010-012-014-032>034-037-058>063-210600-
...CENTRAL COLORADO...

CITY           SKY/WX    TMP DP  RH WIND       PRES   REMARKS
ASPEN          FAIR      61  38  42 S8        30.29S
BUENA VISTA    FAIR      60  41  50 CALM      30.39R
COPPER MTN     MOCLDY    54  32  43 S13       30.65R
BERTHOUD PASS  MOCLDY    43  37  81 W8        30.68S
COTTONWOOD PAS CLOUDY    59  37  44 E13G22    30.51S
GUNNISON       FAIR      62  41  46 N7        30.33R
KREMMLING      FAIR      63  37  39 N3        30.32R
LEADVILLE      FAIR      47  35  63 CALM      30.49R
MONARCH PASS   MOCLDY    45  36  70 NE17      30.74S
SALIDA         FAIR      65  44  46 SE8       30.43R
SUNLIGHT       FAIR      52  30  43 NE6       30.56S
WILKERSON PASS FAIR      50  34  53 SW7       30.63S
$$

COZ069>075-210600-
...SAN LUIS VALLEY/SANGRE DE CRISTO MOUNTAINS...

CITY           SKY/WX    TMP DP  RH WIND       PRES   REMARKS
ALAMOSA        MOCLDY    62  43  49 SW5       30.33R
DEL NORTE      CLOUDY    61  44  53 N5        30.37R
LA VETA PASS   NOT AVBL
SAGUACHE       FAIR      61  43  51 S9        30.38R
$$

COZ035-036-038>040-210600-
...NORTHERN COLORADO FRONT RANGE...

CITY           SKY/WX    TMP DP  RH WIND       PRES   REMARKS
DENVER INTL AP MOCLDY    75  40  28 W9        30.13F
DMNS CITY PARK   N/A     68  49  49 E7        30.13S
AURORA         MOCLDY    70  43  38 SW6       30.16S
FRONT RANGE AP FAIR      72  41  33 SW8       30.15S
ERIE MUNI ARPT FAIR      67  44  44 CALM      30.16S
BOULDER MUN AP FAIR      75  37  25 W6        30.13S
CENTENNIAL     MOCLDY    72  41  32 SW10      30.17S
BROOMFIELD     NOT AVBL
FORT COLLINS   FAIR      70  50  49 CALM      30.12R
LONGMONT       FAIR      69  46  42 W3        30.12F
$$

COZ041-046-047-076>085-087-088-210600-
...PIKES PEAK/PALMER DIVIDE AND SOUTHERN FOOTHILLS...

CITY           SKY/WX    TMP DP  RH WIND       PRES   REMARKS
COLO. SPRINGS  MOCLDY    68  46  45 NW8       30.22F
A. F. ACADEMY  FAIR      60  47  61 NW7       30.24S
SCHRIEVER AFB  MOCLDY    67  42  40 W14       30.22R
CHEYENNE MTN   MOCLDY    70  37  29 W16G26    30.21F
ELLICOTT       NOT AVBL
FALCON         FAIR      65  41  40 W9        30.28S
FORT CARSON    FAIR      69  45  41 W14       30.17F
LIMON          FAIR      66  56  70 SW6       30.15R
MONUMENT HILL  FAIR      61  41  48 SW9       30.29S
CANON CITY     PTCLDY    70  54  56 W15       30.19F
WALSENBURG     FAIR      70  46  43 W6        30.23S
TRINIDAD       LGT RAIN  66  46  48 W14       30.20R
$$

COZ042>045-048>051-090-091-210600-
...NORTHEAST COLORADO...

CITY           SKY/WX    TMP DP  RH WIND       PRES   REMARKS
GREELEY ARPT   FAIR      67  59  75 NW3       30.09R
AKRON          FAIR      68  61  78 E8        30.08S
BURLINGTON     FAIR      74  62  66 S12       30.05S
WRAY           NOT AVBL
YUMA           FAIR      66  55  68 E6        30.04S
STERLING       FAIR      72  64  78 CALM      30.03S
HOLYOKE        FAIR      72  66  83 E5        30.04S
FORT MORGAN    FAIR      68  60  76 E7        30.07S
$$

COZ086-089-092>099-210600-
...SOUTHEAST COLORADO...

CITY           SKY/WX    TMP DP  RH WIND       PRES   REMARKS
PUEBLO         FAIR      77  45  32 W16G25    30.09R
LA JUNTA       FAIR      75  49  39 NW12      30.03R
LAMAR          FAIR      77  58  51 S17       29.98R
SPRINGFIELD      N/A     73  60  63 SW14G22   30.09R
$$




USA.gov is the U.S. government's official web portal to all federal, state and local government web resources and services.